Weather reports worldwide

Advertisment
Marina Di Ginosa, Italy (16325): temperature & dewpoint: 30.03.2020 20:00:00 - 05.04.2020 20:00:00 (CEST)Marina Di Ginosa, Italy (16325): wind speed: 30.03.2020 20:00:00 - 05.04.2020 20:00:00 (CEST)Marina Di Ginosa, Italy (16325): wind direction: 30.03.2020 20:00:00 - 05.04.2020 20:00:00 (CEST)Marina Di Ginosa, Italy (16325): reduced air pressure: 30.03.2020 20:00:00 - 05.04.2020 20:00:00 (CEST)Marina Di Ginosa, Italy (16325): visibility: 30.03.2020 20:00:00 - 05.04.2020 20:00:00 (CEST)
Date & Time tt [°C] td [°C] ff [km/h] ff [kn] dd ppp [hPa] vv [km]
05.04.2020 20:00:00 16,0 7,7 18 10 N 1016,2 20
05.04.2020 19:00:00 16,0 8,0 16 9 NNE - 10
05.04.2020 18:00:00 18,0 7,0 21 11 - - 10
05.04.2020 17:00:00 18,2 6,7 22 12 NNE 1014,6 25
05.04.2020 16:00:00 18,0 7,0 22 12 NNE - 10
05.04.2020 15:00:00 19,0 7,0 21 11 NNE - 10
05.04.2020 14:00:00 17,8 7,8 16 9 NE 1014,4 20
05.04.2020 13:00:00 18,0 8,0 21 11 NE - 10
05.04.2020 12:00:00 18,0 8,0 15 8 NNE - 10
05.04.2020 11:00:00 17,0 11,1 8 4 N 1014,0 12
05.04.2020 10:00:00 16,0 10,0 16 9 WNW - 10
05.04.2020 09:00:00 14,0 9,0 15 8 WNW - 10
05.04.2020 08:00:00 11,8 8,7 15 8 WNW 1013,1 20
05.04.2020 07:00:00 11,0 8,0 16 9 NW - 10
05.04.2020 06:00:00 11,0 9,0 16 9 WNW - 10
05.04.2020 05:00:00 12,0 9,4 16 9 WNW 1012,2 20
05.04.2020 04:00:00 12,0 9,0 18 10 WNW - 10
05.04.2020 03:00:00 12,0 9,0 18 10 NW - 10
05.04.2020 02:00:00 12,0 8,5 16 9 NW 1013,2 20
05.04.2020 01:00:00 13,0 8,0 18 10 NW - 10
05.04.2020 00:00:00 14,0 7,0 18 10 NNW - 10
04.04.2020 23:00:00 14,0 6,8 24 13 NW 1012,8 25
04.04.2020 22:00:00 14,0 7,0 21 11 NW - 10
04.04.2020 21:00:00 15,0 2,0 16 9 - - 10
04.04.2020 20:00:00 16,0 1,0 21 11 NNW 1012,0 25
04.04.2020 19:00:00 17,0 1,0 26 14 NNW - 10
04.04.2020 18:00:00 18,0 2,0 26 14 N - 10
04.04.2020 17:00:00 18,8 3,0 26 14 N 1011,0 25
04.04.2020 16:00:00 20,0 4,0 31 17 N - 10
04.04.2020 15:00:00 20,0 5,0 29 16 N - 10
04.04.2020 14:00:00 19,8 5,8 4 2 N 1011,2 20
04.04.2020 13:00:00 19,0 6,0 31 17 NNW - 10
04.04.2020 12:00:00 18,0 8,0 26 14 - - 10
04.04.2020 11:00:00 16,6 8,6 28 15 NW 1012,1 20
04.04.2020 10:00:00 14,0 8,0 24 13 NW - 10
04.04.2020 09:00:00 11,0 8,0 21 11 NW - 10
04.04.2020 08:00:00 10,0 6,7 21 11 NW 1012,0 20
04.04.2020 07:00:00 9,0 5,0 21 11 NW - 10
04.04.2020 06:00:00 10,0 8,0 18 10 WNW - 10
04.04.2020 05:00:00 11,0 5,3 21 11 NW 1011,9 20
04.04.2020 04:00:00 10,0 -30,0 21 11 NW - 10
04.04.2020 03:00:00 10,0 8,0 15 8 WNW - 10
04.04.2020 02:00:00 10,0 7,2 15 8 WNW 1012,5 20
04.04.2020 01:00:00 11,0 7,0 11 6 - - 10
04.04.2020 00:00:00 11,0 6,0 13 7 NW - 10
03.04.2020 23:00:00 10,0 7,8 9 5 NW 1012,5 20
03.04.2020 22:00:00 11,0 7,0 5 3 NW - 10
03.04.2020 21:00:00 11,0 8,0 9 5 NW - 10
03.04.2020 20:00:00 11,2 7,5 5 3 NW 1011,9 20
03.04.2020 19:00:00 12,0 8,0 0 0 N - 10
03.04.2020 18:00:00 12,0 7,0 4 2 - - 10
03.04.2020 17:00:00 12,2 7,9 5 3 SE 1011,9 20
03.04.2020 16:00:00 13,0 9,0 8 4 SE - 10
03.04.2020 15:00:00 12,0 10,0 9 5 S - 10
03.04.2020 14:00:00 12,8 8,1 9 5 S 1012,3 18
03.04.2020 13:00:00 14,0 7,0 9 5 S - 10
03.04.2020 12:00:00 13,0 6,0 9 5 ESE - 10
03.04.2020 11:00:00 13,2 6,3 11 6 ESE 1012,7 20
03.04.2020 10:00:00 13,0 6,0 15 8 ESE - 10
03.04.2020 09:00:00 11,0 5,0 16 9 E - 10
03.04.2020 08:00:00 7,8 5,1 4 2 N 1012,4 18
03.04.2020 07:00:00 7,0 5,0 9 5 N - 10
03.04.2020 06:00:00 7,0 5,0 9 5 - - 10
03.04.2020 05:00:00 7,2 5,2 11 6 NNE 1012,5 18
03.04.2020 04:00:00 8,0 6,0 11 6 NNE - 10
03.04.2020 03:00:00 9,0 6,0 9 5 NNE - 10
03.04.2020 02:00:00 9,2 6,1 8 4 - 1013,4 10
03.04.2020 01:00:00 10,0 6,0 4 2 - - 10
03.04.2020 00:00:00 10,0 6,0 4 2 - - 10
02.04.2020 23:00:00 10,8 6,0 4 2 N 1013,4 20
02.04.2020 22:00:00 11,0 6,0 13 7 ENE - 10
02.04.2020 21:00:00 11,0 5,0 16 9 ENE - 10
02.04.2020 20:00:00 12,2 5,1 18 10 E 1012,5 20
02.04.2020 19:00:00 13,0 5,0 15 8 SE - 10
02.04.2020 18:00:00 14,0 4,0 15 8 SE - 10
02.04.2020 17:00:00 15,2 3,4 16 9 SE 1013,3 25
02.04.2020 16:00:00 16,0 3,0 15 8 SSE - 10
02.04.2020 15:00:00 16,0 3,0 9 5 SSE - 10
02.04.2020 14:00:00 16,0 2,4 15 8 SE 1014,4 25
02.04.2020 13:00:00 15,0 2,0 11 6 - - 10
02.04.2020 12:00:00 14,0 1,0 11 6 NW - 10
02.04.2020 11:00:00 11,8 2,3 13 7 NW 1014,7 25
02.04.2020 10:00:00 9,0 1,0 18 10 NW - 10
02.04.2020 09:00:00 7,0 0,0 18 10 NW - 10
02.04.2020 08:00:00 5,0 0,0 9 5 WNW 1014,5 20
02.04.2020 07:00:00 4,0 1,0 15 8 NW - 10
02.04.2020 06:00:00 5,0 0,0 15 8 NW - 10
02.04.2020 05:00:00 6,4 0,7 18 10 WNW 1014,5 10
02.04.2020 04:00:00 7,0 0,0 16 9 NW - 10
02.04.2020 03:00:00 7,0 0,0 15 8 WNW - 10
02.04.2020 02:00:00 7,0 -0,7 22 12 NW 1014,5 10
02.04.2020 01:00:00 7,0 -1,0 28 15 NW - 10
02.04.2020 00:00:00 7,0 -1,0 26 14 WNW - 10
01.04.2020 23:00:00 7,0 -0,2 16 9 W 1015,3 10
01.04.2020 22:00:00 7,0 1,0 16 9 WNW - 10
01.04.2020 21:00:00 8,0 1,0 21 11 NNW - 10
01.04.2020 20:00:00 8,2 -0,3 13 7 WNW 1014,5 10
01.04.2020 19:00:00 10,0 0,0 21 11 NW - 10
01.04.2020 18:00:00 11,0 -1,0 24 13 NNW - 10
01.04.2020 17:00:00 12,2 -1,7 26 14 NW 1013,3 30
01.04.2020 16:00:00 11,0 -1,0 31 17 NW - 10
01.04.2020 15:00:00 12,0 1,0 26 14 NNW - 10
01.04.2020 14:00:00 12,0 1,9 35 19 NW 1012,6 10
01.04.2020 13:00:00 12,0 -30,0 29 16 - - 10
01.04.2020 12:00:00 10,0 2,0 29 16 NW - 10
01.04.2020 11:00:00 10,0 2,6 31 17 NW 1013,4 30
01.04.2020 10:00:00 8,0 3,0 29 16 NW - 10
01.04.2020 09:00:00 5,0 3,0 13 7 - - 10
01.04.2020 08:00:00 5,0 4,0 16 9 WNW 1013,9 15
01.04.2020 07:00:00 4,0 3,0 21 11 WNW - 10
01.04.2020 06:00:00 4,0 3,0 21 11 NW - 10
01.04.2020 05:00:00 4,8 3,9 22 12 NW 1014,3 15
01.04.2020 04:00:00 6,0 5,0 22 12 NW - 10
01.04.2020 03:00:00 7,0 6,0 21 11 NW - 10
01.04.2020 02:00:00 8,2 7,3 15 8 NNW 1014,5 10
01.04.2020 01:00:00 9,0 8,0 15 8 NNW - 10
01.04.2020 00:00:00 10,0 7,0 13 7 NW - 10
31.03.2020 23:00:00 10,0 6,7 16 9 NNW 1015,6 20
31.03.2020 22:00:00 10,0 8,0 16 9 NW - 10
31.03.2020 21:00:00 11,0 8,0 15 8 N - 10
31.03.2020 20:00:00 12,6 7,3 15 8 N 1015,0 10
31.03.2020 19:00:00 13,0 8,0 18 10 N - 10
31.03.2020 18:00:00 14,0 8,0 16 9 - - 10
31.03.2020 17:00:00 15,0 7,3 18 10 N 1014,2 15
31.03.2020 16:00:00 16,0 8,0 24 13 N - 10
31.03.2020 15:00:00 18,0 9,0 26 14 N - 10
31.03.2020 14:00:00 19,6 8,3 24 13 NNW 1013,6 15
31.03.2020 13:00:00 19,0 10,0 22 12 NW - 10
31.03.2020 12:00:00 18,0 9,0 26 14 NW - 10
31.03.2020 11:00:00 17,4 9,6 24 13 NW 1014,0 10
31.03.2020 10:00:00 15,0 9,0 22 12 NW - 10
31.03.2020 09:00:00 14,0 9,0 18 10 - - 10
31.03.2020 08:00:00 12,0 9,2 16 9 NW 1013,1 15
31.03.2020 07:00:00 12,0 10,0 11 6 NW - 10
31.03.2020 06:00:00 12,0 10,0 15 8 NW - 10
31.03.2020 05:00:00 11,2 9,5 13 7 NW 1012,3 15
31.03.2020 04:00:00 11,0 9,0 16 9 NW - 10
31.03.2020 03:00:00 11,0 9,0 15 8 NW - 10
31.03.2020 02:00:00 11,0 9,6 13 7 NW 1012,2 15
31.03.2020 01:00:00 11,0 10,0 9 5 NNW - 10
31.03.2020 00:00:00 12,0 11,0 9 5 - - 10
30.03.2020 23:00:00 12,8 11,2 9 5 WNW 1011,7 15
30.03.2020 22:00:00 13,0 12,0 9 5 NW - 10
30.03.2020 21:00:00 14,0 12,0 11 6 NNW - 10
30.03.2020 20:00:00 15,6 12,4 5 3 W 1010,6 15

tt = temperature
td = dewpoint
ff = wind speed
dd = wind direction
ppp = reduced air pressure
vv = visibility

Next stations